sat.trackr.live / text

‹ back to catalog

YAOGAN-24

NORAD 40310 · 2014-072A

PAYLOAD ACTIVE UNKNOWN

§ Identity

Operator
Country
PRC
Launch date
2014-11-20
Launch site
JSC
Launch vehicle
Mass (kg)
RCS (m²)
4.23

Purposes: earth_obs

External: N2YO · Heavens-Above · Gunter

§ Orbital elements

Epoch: 2026-09-13T04:51:17.127648Z

Period
97.55 min
Inclination
98.1615°
Eccentricity
0.0014197
Mean motion
14.76178492 rev/d
Perigee alt
631.4 km
Apogee alt
651.4 km
Semi-major
7,019.5 km
B*
1.5463e-5
RAAN
34.3361°
Arg perigee
348.2456°
Mean anomaly
11.8420°
Rev number
63,670

§ Raw data

YAOGAN-241 40310U 14072A   26256.20228157  .00000053  00000+0  15463-4 0  99902 40310  98.1615  34.3361 0014197 348.2456  11.8420 14.76178492636701

JSON: /api/v1/satellites/40310 · /tle

For live sub-satellite position, see the globe view (requires WebGL).

§ Visibility from observer

Set your observer location to see the next 7 days of passes ≥ 10°. The values pass through the URL so the page stays shareable.

No JS? Fill the form by hand. The geolocation button needs JavaScript.